FW4219 Weather Reports


Display with metric or nautical units.
time (UTC)temp
F
wind
direction
speed
MPH
gust
MPH
rain 1hr
in
rain 24hr
in
rain mn
in
humidity
%
barometer
mb
20260509123943 56 220 3.0 7.0 0.00 0.00 0.00 100 1006.8
20260509121941 56 216 6.0 12.0 0.00 0.00 0.00 100 1006.5
20260509121039 55 223 4.0 8.0 0.00 0.00 0.00 100 1006.8
20260509120940 55 235 4.0 8.0 0.00 0.00 0.00 100 1006.8
20260509115940 55 211 6.0 9.0 0.00 0.00 0.00 100 1006.8
20260509114939 54 216 3.0 5.0 0.00 0.00 0.00 100 1006.7
20260509112942 54 198 3.0 6.0 0.00 0.00 0.00 100 1006.5
20260509111941 54 270 2.0 4.0 0.00 0.00 0.00 100 1006.5
20260509111040 54 220 5.0 9.0 0.00 0.00 0.00 100 1006.1
20260509110040 54 206 4.0 6.0 0.00 0.00 0.00 100 1006.1
20260509105039 54 214 4.0 10.0 0.00 0.00 0.00 100 1006.1
20260509103139 54 207 4.0 8.0 0.00 0.00 0.00 100 1006.1
20260509103040 54 194 4.0 7.0 0.00 0.00 0.00 100 1006.1
20260509102041 54 214 5.0 11.0 0.00 0.00 0.00 100 1006.4
20260509101040 54 217 3.0 5.0 0.00 0.00 0.00 100 1006.5
20260509100140 54 209 2.0 4.0 0.00 0.00 0.00 100 1006.5
20260509095239 54 212 2.0 3.0 0.00 0.00 0.00 100 1006.5
20260509094239 54 202 0.0 2.0 0.00 0.00 0.00 100 1006.5
20260509093242 54 241 2.0 4.0 0.00 0.00 0.00 100 1006.8
20260509092241 54 210 2.0 4.0 0.00 0.00 0.00 100 1006.8
20260509091241 55 209 3.0 6.0 0.00 0.00 0.00 100 1006.8
20260509090241 55 228 4.0 6.0 0.00 0.00 0.00 100 1007.1
20260509085240 55 225 2.0 4.0 0.00 0.00 0.00 100 1007.1
20260509083339 55 228 1.0 3.0 0.00 0.00 0.00 100 1007.1
20260509082439 55 221 2.0 4.0 0.00 0.00 0.00 100 1006.8
20260509081440 55 238 2.0 3.0 0.00 0.00 0.00 100 1006.9
20260509080456 55 204 4.0 11.0 0.00 0.00 0.00 100 1006.8
20260509075539 55 225 1.0 3.0 0.00 0.00 0.00 100 1007.1
20260509075440 55 225 2.0 4.0 0.00 0.00 0.00 100 1007.1
20260509074539 55 223 3.0 6.0 0.00 0.00 0.00 100 1007.1
20260509073540 55 225 2.0 4.0 0.00 0.00 0.00 100 1007.1
20260509072541 55 252 2.0 4.0 0.00 0.00 0.00 100 1007.2
20260509071540 55 225 1.0 4.0 0.00 0.00 0.00 100 1007.5
20260509071440 55 225 3.0 7.0 0.00 0.00 0.00 100 1007.5
20260509070438 55 241 1.0 3.0 0.00 0.00 0.00 100 1007.8
20260509065439 55 247 0.0 2.0 0.00 0.00 0.00 100 1007.6
20260509063438 56 217 2.0 6.0 0.00 0.00 0.00 100 1007.8
20260509062439 56 214 2.0 5.0 0.00 0.00 0.00 100 1008.1
20260509060538 56 215 4.0 10.0 0.00 0.00 0.00 100 1008.2
20260509055540 56 216 4.0 8.0 0.00 0.00 0.00 100 1008.5
20260509054540 56 225 2.0 3.0 0.00 0.00 0.00 100 1008.4
20260509052540 56 204 1.0 5.0 0.00 0.00 0.00 100 1008.5
20260509052441 56 209 3.0 7.0 0.00 0.00 0.00 100 1008.5
20260509051340 57 216 3.0 7.0 0.00 0.00 0.00 100 1008.5
20260509050239 57 196 4.0 8.0 0.00 0.00 0.00 100 1008.5
20260509045252 57 210 3.0 6.0 0.00 0.00 0.00 100 1008.5
20260509044351 57 211 6.0 8.0 0.00 0.00 0.00 100 1008.5
20260509043353 57 218 3.0 8.0 0.00 0.00 0.00 100 1008.5
20260509042351 57 225 2.0 4.0 0.00 0.00 0.00 100 1008.5
20260509041449 57 210 6.0 12.0 0.00 0.00 0.00 100 1008.5
20260509040451 57 202 5.0 11.0 0.00 0.00 0.00 100 1008.5
20260509034551 57 190 3.0 6.0 0.00 0.00 0.00 100 1008.5
20260509033552 56 187 2.0 6.0 0.00 0.00 0.00 100 1008.5
20260509032553 55 225 3.0 5.0 0.00 0.00 0.00 100 1008.6
20260509031651 55 202 2.0 3.0 0.00 0.00 0.00 100 1008.5
20260509030651 54 202 2.0 3.0 0.00 0.00 0.00 100 1008.8
20260509025650 54 180 2.0 4.0 0.00 0.00 0.00 100 1008.8
20260509024653 54 180 1.0 4.0 0.00 0.00 0.00 100 1008.8
20260509023653 54 90 0.0 1.0 0.00 0.00 0.00 100 1008.8
20260509021651 55 90 0.0 2.0 0.00 0.00 0.00 100 1008.8
20260509021551 55 90 0.0 2.0 0.00 0.00 0.00 100 1008.8
20260509015552 56 90 1.0 3.0 0.00 0.00 0.00 100 1008.8
20260509014552 56 90 0.0 2.0 0.00 0.00 0.00 100 1008.8
20260509012552 56 90 0.0 2.0 0.00 0.00 0.00 100 1008.8
20260509011553 57 134 2.0 3.0 0.00 0.00 0.00 100 1008.8
20260509010651 57 114 2.0 3.0 0.00 0.00 0.00 100 1008.8
20260509005652 58 135 1.0 2.0 0.00 0.00 0.00 100 1008.8
20260509003649 59 135 1.0 4.0 0.00 0.00 0.00 100 1008.8
20260509002550 60 108 3.0 5.0 0.00 0.00 0.00 100 1008.8
20260509001552 60 154 2.0 3.0 0.00 0.00 0.00 100 1009.1
20260508234651 60 90 1.0 2.0 0.00 0.00 0.00 100 1009.2
20260508232652 60 83 1.0 3.0 0.00 0.00 0.00 100 1009.2
20260508231749 61 128 1.0 2.0 0.00 0.00 0.00 100 1009.2
20260508230753 61 180 0.0 0.0 0.00 0.00 0.00 100 1009.2
20260508225752 61 90 0.0 2.0 0.00 0.00 0.00 100 1009.2
20260508224849 61 90 0.0 2.0 0.00 0.00 0.00 100 1009.2
20260508223851 60 87 2.0 4.0 0.00 0.00 0.00 100 1009.2
20260508222751 61 112 1.0 4.0 0.00 0.00 0.00 100 1009.2
20260508221753 62 120 1.0 3.0 0.00 0.00 0.00 100 1009.2
20260508221652 62 122 2.0 4.0 0.00 0.00 0.00 100 1009.2
20260508220751 62 153 2.0 3.0 0.00 0.00 0.00 100 1009.2
20260508215752 62 135 1.0 3.0 0.00 0.01 0.00 100 1009.6
20260508214752 63 67 1.0 2.0 0.00 0.03 0.00 100 1009.6
20260508213751 63 134 3.0 5.0 0.00 0.03 0.00 100 1009.3
20260508211751 65 97 2.0 4.0 0.00 0.03 0.00 100 1009.4
20260508210754 65 95 3.0 6.0 0.00 0.03 0.00 100 1009.3
20260508205849 65 119 2.0 4.0 0.00 0.03 0.00 100 1009.4
20260508205749 65 109 2.0 4.0 0.00 0.03 0.00 100 1009.3
20260508204752 66 90 3.0 5.0 0.00 0.03 0.00 100 1009.6
20260508203751 69 105 4.0 7.0 0.00 0.03 0.00 100 1009.6
20260508202749 69 130 4.0 7.0 0.00 0.03 0.00 100 1009.6
20260508201749 68 225 0.0 0.0 0.00 0.03 0.00 100 1009.9
20260508200849 67 112 3.0 7.0 0.00 0.03 0.00 100 1009.9
20260508195850 68 131 4.0 6.0 0.00 0.03 0.00 100 1010.3
20260508194853 69 128 3.0 6.0 0.00 0.03 0.00 100 1010.3
20260508193950 68 185 4.0 7.0 0.00 0.03 0.00 100 1010.3
20260508192950 67 117 2.0 4.0 0.00 0.03 0.00 100 1010.3
20260508191951 66 111 2.0 3.0 0.00 0.03 0.00 100 1010.6
20260508190950 66 125 2.0 4.0 0.00 0.03 0.00 100 1010.7
20260508185951 66 107 3.0 5.0 0.00 0.03 0.00 100 1011.0
20260508184951 66 157 0.0 1.0 0.00 0.03 0.00 100 1011.0
20260508183951 66 67 1.0 2.0 0.00 0.03 0.00 100 1011.1
20260508183049 67 191 1.0 4.0 0.00 0.03 0.00 100 1011.1
20260508182052 68 90 0.0 2.0 0.00 0.03 0.00 100 1011.3
20260508181148 67 96 1.0 3.0 0.00 0.03 0.00 100 1011.3
20260508180151 67 49 0.0 3.0 0.00 0.03 0.00 100 1011.6
20260508175152 66 45 0.0 0.0 0.00 0.03 0.00 100 1012.0
20260508174151 67 191 1.0 5.0 0.00 0.03 0.00 100 1011.8
20260508173151 66 112 3.0 8.0 0.00 0.03 0.00 100 1012.0
20260508171152 66 98 0.0 2.0 0.00 0.03 0.00 100 1012.3
20260508170152 65 218 3.0 6.0 0.00 0.03 0.00 100 1012.7
20260508165250 65 114 2.0 4.0 0.00 0.03 0.00 100 1012.7
20260508163250 65 106 0.0 3.0 0.00 0.03 0.00 100 1013.0
20260508162251 65 90 0.0 2.0 0.00 0.03 0.00 100 1013.0
20260508160351 65 183 1.0 3.0 0.00 0.03 0.00 100 1013.0
20260508155350 63 90 0.0 0.0 0.00 0.03 0.00 100 1013.3
20260508154351 63 135 0.0 2.0 0.00 0.03 0.00 100 1013.3
20260508153350 62 174 3.0 5.0 0.00 0.03 0.00 100 1013.7
20260508152351 62 93 3.0 4.0 0.00 0.03 0.00 100 1013.7
20260508151450 61 170 3.0 4.0 0.00 0.03 0.00 100 1013.7
20260508144449 59 196 1.0 2.0 0.00 0.03 0.00 100 1013.7
20260508141450 55 135 0.0 2.0 0.00 0.03 0.00 100 1014.1
20260508141351 55 135 0.0 2.0 0.00 0.03 0.00 100 1014.1
20260508140352 55 135 1.0 2.0 0.00 0.03 0.00 100 1014.1
20260508135351 53 135 0.0 2.0 0.00 0.03 0.00 100 1014.1
20260508134353 52 90 0.0 1.0 0.00 0.03 0.00 100 1013.7
20260508133450 51 135 1.0 3.0 0.00 0.03 0.00 100 1013.7
20260508131451 50 135 0.0 0.0 0.00 0.03 0.00 100 1014.1
20260508125551 49 183 0.0 2.0 0.00 0.03 0.00 100 1014.1